Location: Peers
(53.6667°N, 115.9833°W)
Time: 12:03:42
(UTC+00:00)

ISS - Visible Passes

Search period start: 02 December 2021 00:00
Search period end: 12 December 2021 00:00
Orbit: 417 x 423 km, 51.6° (Epoch: 02 December)

Date Brightness Start Highest point End Pass type
(mag) Time Alt. Az. Time Alt. Az. Time Alt. Az.
02 Dec -3.1 01:27:48 10° W 01:31:08 52° SSW 01:32:21 32° SE visible
02 Dec -0.4 03:04:53 10° W 03:05:21 12° WSW 03:05:21 12° WSW visible
03 Dec -3.2 00:40:37 10° W 00:43:58 58° S 00:47:13 11° ESE visible
03 Dec -1.9 02:17:32 10° W 02:20:13 27° SW 02:20:13 27° SW visible
04 Dec -2.3 01:30:15 10° W 01:33:24 35° SSW 01:35:10 20° SSE visible
05 Dec -2.6 00:43:01 10° W 00:46:16 43° SSW 00:49:31 10° SE visible
05 Dec -1.1 02:20:29 10° WSW 02:22:30 15° SW 02:23:17 14° SSW visible
06 Dec -1.3 01:32:54 10° W 01:35:29 20° SSW 01:38:05 10° SSE visible
07 Dec -1.6 00:45:30 10° W 00:48:26 27° SSW 00:51:20 10° SSE visible
08 Dec -0.4 01:36:44 10° SW 01:37:24 10° SW 01:38:04 10° SSW visible
09 Dec -0.6 00:48:24 10° WSW 00:50:24 15° SW 00:52:23 10° S visible
